User: anonymous   Login
Location: Unspecified
(0.0000°N, 0.0000°E)
Time: 01:10:47
(UTC+00:00)
Language:

STARLINK-11290 [DTC] - Orbit

View from above orbital plane
View from above orbital plane
View from above satellite
View from above satellite

Ground track
Ground track

The orbit is defined by the following mean orbital elements,

1 61000U          26145.34261681 +.00000000 +00000-0 +37658-4 0 00002
2 61000  53.1589 263.4031 0000609  54.3947 305.7128 15.69689682    02
Epoch (UTC): 25 May 2026 08:13:22
Eccentricity: 0.0000609
inclination: 53.1589°
perigee height: 359 km
apogee height: 360 km
right ascension of ascending node: 263.4031°
argument of perigee: 54.3947°
revolutions per day: 15.69689682
mean anomaly at epoch: 305.7128°

The dashed part of the orbit path shows where the satellite is in the earth's shadow,  

DLR